User: anonymous   Login
Location: Caltech
(34.1382°N, 118.1253°W)
Time: 04:35:21
(UTC-08:00)
Language:

Iridium 59 - Orbit

View from above orbital plane
View from above orbital plane
View from above satellite
View from above satellite

Ground track
Ground track

The orbit data is extracted from the following two-line orbital elements,

1 25275U 98019D   14329.48731909  .00000348  00000-0  11732-3 0  6032
2 25275 086.3945 318.0655 0002084 106.8867 253.2557 14.34218091872094
Epoch (UTC): 25 November 2014 11:41:44
Eccentricity: 0.0002084
inclination: 86.3945°
perigee height: 776 km
apogee height: 779 km
right ascension of ascending node: 318.0655°
argument of perigee: 106.8867°
revolutions per day: 14.34218091
mean anomaly at epoch: 253.2557°
orbit number at epoch: 87209

The dashed part of the orbit path shows where the satellite is in the earth's shadow,  

DLR